Weather History for KLUF - January, 2013

Change the Weather History Date:

Monday, January 28, 2013

  Actual Average Record
Temperature  
Mean Temperature 51 °F -  
Max Temperature 57 °F 70 °F 74 °F (2015)
Min Temperature 44 °F 39 °F 42 °F (2014)
Degree Days  
Heating Degree Days 14    
Growing Degree Days 1 (Base 50)    
Moisture  
Dew Point 41 °F    
Average Humidity 69    
Maximum Humidity 100    
Minimum Humidity 38    
Precipitation  
Precipitation 0.05 in - - ()
Sea Level Pressure  
Sea Level Pressure 29.95 in    
Wind  
Wind Speed 10 mph (SW)    
Max Wind Speed 18 mph    
Max Gust Speed 22 mph    
Visibility 10 miles    
Events Rain    
Averages and records for this station are not official NWS values.
T = Trace of Precipitation, MM = Missing Value Source: NWS Daily Summary

Daily Weather History Graph

Daily Weather History Graph

Search for Another Location

Airport or City:

Trip Planner

Search our weather history database for the weather conditions in past years. The results will help you decide how hot, cold, wet, or windy it might be!

Date:

Astronomy

Jan. 28, 2013 Rise Set
Actual Time 7:28 AM MST 5:57 PM MST
Civil Twilight 7:01 AM MST 6:23 PM MST
Nautical Twilight 6:31 AM MST 6:53 PM MST
Astronomical Twilight 6:02 AM MST 7:23 PM MST
Moon 7:47 PM MST (1/28) 8:02 AM MST (1/28)
Length of Visible Light 11h 21m
Length of Day
10h 29m
Full, 97% of the Moon is Illuminated
Jan 28
Full
Feb 3
Last Quarter
Feb 10
New
Feb 17
First Quarter
Feb 25
Full

Hourly Weather History & Observations

Time (MST) Temp. Windchill Dew Point Humidity Pressure Visibility Wind Dir Wind Speed Gust Speed Precip Events Conditions
12:08 AM 57.2 °F - 57.2 °F 100% 29.90 in 10.0 mi SSW 8.1 mph - N/A   Mostly Cloudy
12:38 AM 57.2 °F - 55.4 °F 94% 29.90 in 10.0 mi South 9.2 mph - N/A   Overcast
12:58 AM 57.6 °F - 54.9 °F 91% 29.89 in 10.0 mi SSW 8.1 mph - N/A   Overcast
1:18 AM 57.2 °F - 55.4 °F 94% 29.90 in 10.0 mi SSW 6.9 mph - N/A   Overcast
1:58 AM 57.7 °F - 53.6 °F 86% 29.89 in 10.0 mi SE 3.5 mph - N/A   Overcast
2:08 AM 57.2 °F - 53.6 °F 88% 29.89 in 10.0 mi ESE 3.5 mph - N/A   Overcast
2:48 AM 55.4 °F - 55.4 °F 100% 29.89 in 10.0 mi SE 8.1 mph - N/A   Light Drizzle
2:58 AM 55.9 °F - 55.6 °F 99% 29.88 in 10.0 mi South 5.8 mph - N/A   Partly Cloudy
3:48 AM 55.4 °F - 32.0 °F 41% 29.89 in 10.0 mi SE 3.5 mph - N/A   Mostly Cloudy
3:58 AM 55.4 °F - 32.0 °F 41% 29.88 in 10.0 mi SW 12.7 mph - N/A   Light Drizzle
4:08 AM 55.4 °F - 32.0 °F 41% 29.89 in 10.0 mi SW 18.4 mph - N/A   Overcast
4:38 AM 50.0 °F - 32.0 °F 50% 29.90 in 10.0 mi SSW 18.4 mph - N/A Rain Light Rain
4:58 AM 50.0 °F - - N/A% 29.89 in 10.0 mi SW 17.3 mph - 0.05 in Rain Light Rain
5:58 AM 50.0 °F - 32.0 °F 50% 29.88 in 10.0 mi SSW 10.4 mph - N/A   Mostly Cloudy
6:48 AM 48.2 °F - 48.2 °F 100% 29.92 in 10.0 mi SSW 12.7 mph - N/A   Scattered Clouds
6:58 AM 48.7 °F - 48.7 °F 100% 29.93 in 10.0 mi SSW 10.4 mph - N/A   Mostly Cloudy
7:18 AM 48.2 °F - 46.4 °F 93% 29.94 in 10.0 mi SW 12.7 mph - N/A   Scattered Clouds
7:28 AM 48.2 °F - 44.6 °F 87% 29.94 in 10.0 mi SSW 15.0 mph - N/A   Mostly Cloudy
7:38 AM 48.2 °F - 44.6 °F 87% 29.95 in 10.0 mi SSW 15.0 mph - N/A   Mostly Cloudy
7:58 AM 47.5 °F - 44.2 °F 89% 29.95 in 10.0 mi SW 16.1 mph - N/A   Scattered Clouds
8:58 AM 47.8 °F - 43.3 °F 84% 29.98 in 10.0 mi SW 13.8 mph - N/A   Clear
9:18 AM 48.2 °F - 42.8 °F 82% 29.98 in 10.0 mi SW 15.0 mph - N/A   Mostly Cloudy
9:58 AM 49.8 °F - 42.1 °F 75% 29.98 in 10.0 mi SSW 16.1 mph - N/A   Mostly Cloudy
10:38 AM 51.8 °F - 41.0 °F 67% 29.99 in 10.0 mi SSW 16.1 mph - N/A   Scattered Clouds
10:58 AM 51.8 °F - 40.6 °F 66% 30.00 in 10.0 mi SW 16.1 mph - N/A   Scattered Clouds
11:58 AM 53.4 °F - 39.4 °F 59% 29.99 in 10.0 mi SW 11.5 mph 19.6 mph N/A   Clear
12:58 PM 55.8 °F - 38.1 °F 52% 29.97 in 10.0 mi SW 12.7 mph - N/A   Scattered Clouds
1:11 PM 55.4 °F - 37.4 °F 51% 29.98 in 10.0 mi WSW 15.0 mph - N/A   Partly Cloudy
1:32 PM 53.6 °F - 37.4 °F 54% 29.97 in 10.0 mi WSW 11.5 mph - N/A   Mostly Cloudy
1:58 PM 54.3 °F - 36.9 °F 52% 29.96 in 10.0 mi SW 15.0 mph - N/A   Mostly Cloudy
2:58 PM 54.5 °F - 36.1 °F 50% 29.96 in 10.0 mi WSW 12.7 mph - N/A   Mostly Cloudy
3:58 PM 54.9 °F - 34.0 °F 45% 29.96 in 10.0 mi WSW 16.1 mph 21.9 mph N/A   Mostly Cloudy
4:28 PM 57.2 °F - 32.0 °F 38% 29.96 in 10.0 mi WSW 16.1 mph - N/A   Mostly Cloudy
4:58 PM 55.2 °F - 35.2 °F 47% 29.97 in 10.0 mi NW 18.4 mph - N/A   Mostly Cloudy
5:58 PM 52.3 °F - 30.9 °F 44% 29.97 in 10.0 mi NW 15.0 mph - N/A   Mostly Cloudy
6:38 PM 50.0 °F - 32.0 °F 50% 29.98 in 10.0 mi NNW 6.9 mph - N/A   Scattered Clouds
6:58 PM 50.4 °F - 32.5 °F 50% 29.98 in 10.0 mi West 3.5 mph - N/A   Scattered Clouds
7:58 PM 49.6 °F - 34.7 °F 56% 30.01 in 10.0 mi West 2.3 mph - N/A   Scattered Clouds
8:58 PM 49.1 °F - 35.2 °F 59% 30.01 in 10.0 mi NNW 5.8 mph - N/A   Mostly Cloudy
9:58 PM 47.1 °F - 35.6 °F 64% 30.01 in 10.0 mi WNW 6.9 mph - N/A   Scattered Clouds
10:58 PM 45.9 °F 41.7 °F 34.2 °F 64% 30.02 in 10.0 mi WNW 8.1 mph - N/A   Partly Cloudy
11:58 PM 44.2 °F 41.0 °F 36.9 °F 75% 30.02 in 10.0 mi WSW 5.8 mph - N/A   Clear